Meteo Giornale » Osservazioni meteo Italia » Bari-Palese Macchie

ore: 17:50 - Osservazioni Meteo Bari-Palese Macchie
Lat. 41° 8' N Lon. 16° 47' E Alt. 34 metri s.l.m.

poco_nuvoloso Europe/Rome

20 °C

Poco Nuvoloso

Temp. 24 Ore

14 °C

21 °C

Est/Nord-Est

7.4 Km/h

Dew point 16 °C

Umidità 77 %

Visibilità  10 Km

Il sole sorge alle ore 07:06

Il sole tramonta alle ore 18:09

Data e Ora Cielo e Fenomeni T °C DP °C Um. % Pres. hPa Vis. km Vento km/h
Oggi h: 17:50 poco_nuvoloso Poco Nuvoloso 20 16 77 1014 10 E/NE 7.4
Oggi h: 17:20 poco_nuvoloso Poco Nuvoloso 20 15 72 1014 10 E/NE 9.3
Oggi h: 16:50 poco_nuvoloso Poco Nuvoloso 20 15 72 1014 10 E/NE 13
Oggi h: 16:20 sereno Sereno 21 16 73 1014 10 NE 14.8
Oggi h: 15:50 sereno Sereno 21 15 68 1014 10 NE 16.7
Oggi h: 15:20 sereno Sereno 21 16 73 1014 10 NE 14.8
Oggi h: 13:50 poco_nuvoloso Poco Nuvoloso 21 15 68 1014 10 NE 11.1
Oggi h: 13:20 poco_nuvoloso Poco Nuvoloso 21 16 73 1015 10 N/NE 11.1
Oggi h: 12:50 poco_nuvoloso Poco Nuvoloso 21 16 73 1015 10 N/NE 9.3
Oggi h: 12:20 nuvoloso Nuvoloso 21 16 73 1015 10 NE 9.3
Oggi h: 11:50 nuvoloso Nuvoloso 21 16 73 1015 10 NE 11.1
Oggi h: 11:20 nuvoloso Nuvoloso 21 16 73 1016 10 N/NE 9.3
Oggi h: 10:50 nuvoloso Nuvoloso 21 16 73 1016 10 N 7.4
Oggi h: 10:20 nuvoloso Nuvoloso 20 16 77 1016 10 N 3.7
Oggi h: 09:50 nuvoloso Nuvoloso 19 17 88 1015 10 N 3.7
Oggi h: 09:20 poco_nuvoloso Poco Nuvoloso 19 17 88 1015 10 N 5.5
Oggi h: 08:50 nuvoloso Nuvoloso 18 17 93 1015 9 N 5.5
Oggi h: 08:20 poco_nuvoloso Poco Nuvoloso 17 18 0 1015 7 N 5.5
Oggi h: 07:50 poco_nuvoloso Poco Nuvoloso 14 13 93 1015 7 O/SO 7.4
Oggi h: 07:20 poco_nuvoloso Poco Nuvoloso 14 13 93 1015 7 O/SO 7.4
Oggi h: 06:50 poco_nuvoloso Poco Nuvoloso 14 13 93 1015 7 O/SO 7.4
Oggi h: 06:20 poco_nuvoloso Poco Nuvoloso 14 13 93 1015 9 N 5.5
Oggi h: 05:50 nuvoloso Nuvoloso 14 13 93 1015 10 O/SO 7.4
Oggi h: 05:20 sereno Sereno 14 13 93 1015 10 O/SO 7.4
Oggi h: 04:50 sereno Sereno 14 13 93 1015 10 N 5.5
Oggi h: 04:20 sereno Sereno 14 13 93 1015 10 N 5.5
Oggi h: 03:50 sereno Sereno 14 13 93 1015 10 N 5.5
Oggi h: 03:20 sereno Sereno 14 13 93 1015 10 O/SO 7.4
Oggi h: 02:50 sereno Sereno 14 13 93 1015 10 SO 9.3
Oggi h: 02:20 sereno Sereno 14 14 100 1016 10 SO 9.3
Oggi h: 01:50 sereno Sereno 15 14 93 1016 10 N 5.5
Oggi h: 01:20 sereno Sereno 15 13 87 1016 10 N 5.5
Oggi h: 00:50 sereno Sereno 15 14 93 1016 10 SO 7.4
Oggi h: 00:20 sereno Sereno 15 14 93 1016 10 SO 7.4
Ieri h: 23:50 sereno Sereno 15 14 93 1016 10 N 5.5
Ieri h: 23:20 sereno Sereno 15 14 93 1016 10 SO 7.4
Ieri h: 22:50 sereno Sereno 15 14 93 1017 10 N 5.5
Ieri h: 22:20 sereno Sereno 16 15 93 1017 10 SO 7.4
Ieri h: 21:50 sereno Sereno 16 15 93 1016 10 N 3.7
Ieri h: 21:20 sereno Sereno 17 15 88 1016 10 N 3.7
Ieri h: 20:50 sereno Sereno 18 16 88 1016 10 N 5.5
Ieri h: 20:20 sereno Sereno 18 16 88 1016 10 N 3.7
Ieri h: 19:50 sereno Sereno 19 16 82 1016 10 N 3.7